When you browse on this site, cookies collect data to enhance your experience and personalize the content and advertising you see.
Visit our Privacy Policy to learn more. By continuing to use the site, you agree to this use of cookies and data.
  • In United Kingdom
  • List of Countries
  • For 7 days
  • Water Temperature
  • Satellite Maps
  • Weather Map
  • Weather Widgets
  • user-avatar
    Login

    Hourly Weather Monsummano

    Today, 20 March, Wednesday

    Time Temperature Precipitation Wind Pressure Humidity
    00:00 +6°C° 0 mm 4 mps 766 mmHg 66%
    01:00 +6°C° 0 mm 4 mps 766 mmHg 67%
    02:00 +6°C° 0 mm 5 mps 766 mmHg 66%
    03:00 +6°C° 0 mm 5 mps 766 mmHg 65%
    04:00 +6°C° 0 mm 5 mps 766 mmHg 64%
    05:00 +6°C° 0 mm 5 mps 766 mmHg 63%
    06:00 +6°C° 0 mm 5 mps 767 mmHg 63%
    07:00 +6°C° 0 mm 5 mps 767 mmHg 63%
    08:00 +7°C° 0 mm 6 mps 767 mmHg 58%
    09:00 +9°C° 0 mm 7 mps 768 mmHg 53%
    10:00 +10°C° 0 mm 8 mps 768 mmHg 48%
    11:00 +11°C° 0 mm 8 mps 768 mmHg 46%
    12:00 +12°C° 0 mm 7 mps 768 mmHg 43%
    13:00 +12°C° 0 mm 7 mps 768 mmHg 40%
    14:00 +12°C° 0 mm 7 mps 768 mmHg 40%
    15:00 +12°C° 0 mm 7 mps 768 mmHg 40%
    16:00 +12°C° 0 mm 7 mps 768 mmHg 40%
    17:00 +10°C° 0 mm 6 mps 768 mmHg 44%
    18:00 +9°C° 0 mm 5 mps 768 mmHg 47%
    19:00 +8°C° 0 mm 4 mps 768 mmHg 51%
    20:00 +7°C° 0 mm 5 mps 768 mmHg 53%
    21:00 +7°C° 0 mm 5 mps 769 mmHg 54%
    22:00 +7°C° 0 mm 5 mps 769 mmHg 56%
    23:00 +7°C° 0 mm 5 mps 769 mmHg 58%

    Tomorrow, 21 March, Thursday

    Time Temperature Precipitation Wind Pressure Humidity
    00:00 +7°C° 0 mm 5 mps 769 mmHg 61%
    01:00 +7°C° 0 mm 6 mps 769 mmHg 64%
    02:00 +7°C° 0 mm 6 mps 769 mmHg 64%
    03:00 +7°C° 0 mm 6 mps 769 mmHg 64%
    04:00 +7°C° 0 mm 5 mps 769 mmHg 65%
    05:00 +7°C° 0 mm 5 mps 769 mmHg 64%
    06:00 +7°C° 0 mm 5 mps 769 mmHg 63%
    07:00 +7°C° 0 mm 5 mps 769 mmHg 62%
    08:00 +8°C° 0 mm 6 mps 770 mmHg 57%
    09:00 +10°C° 0 mm 6 mps 770 mmHg 52%
    10:00 +11°C° 0 mm 6 mps 770 mmHg 47%
    11:00 +13°C° 0 mm 6 mps 770 mmHg 45%
    12:00 +14°C° 0 mm 6 mps 770 mmHg 43%
    13:00 +15°C° 0 mm 6 mps 769 mmHg 41%
    14:00 +16°C° 0 mm 6 mps 769 mmHg 41%
    15:00 +16°C° 0 mm 5 mps 769 mmHg 40%
    16:00 +16°C° 0 mm 5 mps 768 mmHg 40%
    17:00 +14°C° 0 mm 5 mps 768 mmHg 43%
    18:00 +12°C° 0 mm 4 mps 768 mmHg 46%
    19:00 +11°C° 0 mm 4 mps 768 mmHg 49%
    20:00 +10°C° 0 mm 4 mps 769 mmHg 49%
    21:00 +10°C° 0 mm 4 mps 769 mmHg 49%
    22:00 +10°C° 0 mm 3 mps 769 mmHg 49%
    23:00 +9°C° 0 mm 3 mps 769 mmHg 50%

    Day after tomorrow, 22 March, Friday

    Time Temperature Precipitation Wind Pressure Humidity
    00:00 +9°C° 0 mm 3 mps 769 mmHg 51%
    01:00 +9°C° 0 mm 3 mps 769 mmHg 51%
    02:00 +9°C° 0 mm 3 mps 769 mmHg 52%
    03:00 +9°C° 0 mm 3 mps 769 mmHg 52%
    04:00 +8°C° 0 mm 3 mps 769 mmHg 52%
    05:00 +8°C° 0 mm 3 mps 769 mmHg 52%
    06:00 +8°C° 0 mm 3 mps 769 mmHg 53%
    07:00 +8°C° 0 mm 3 mps 769 mmHg 54%
    08:00 +10°C° 0 mm 3 mps 769 mmHg 49%
    09:00 +13°C° 0 mm 3 mps 769 mmHg 44%
    10:00 +16°C° 0 mm 3 mps 769 mmHg 38%
    11:00 +18°C° 0 mm 3 mps 769 mmHg 36%
    12:00 +19°C° 0 mm 3 mps 768 mmHg 34%
    13:00 +20°C° 0 mm 3 mps 768 mmHg 32%
    14:00 +20°C° 0 mm 3 mps 768 mmHg 34%
    15:00 +20°C° 0 mm 2 mps 767 mmHg 35%
    16:00 +20°C° 0 mm 2 mps 767 mmHg 36%
    17:00 +18°C° 0 mm 2 mps 767 mmHg 42%
    18:00 +16°C° 0 mm 2 mps 767 mmHg 47%
    19:00 +14°C° 0 mm 2 mps 767 mmHg 53%
    20:00 +13°C° 0 mm 2 mps 767 mmHg 54%
    21:00 +12°C° 0 mm 2 mps 768 mmHg 56%
    22:00 +12°C° 0 mm 2 mps 768 mmHg 57%
    23:00 +10°C° 0 mm 2 mps 768 mmHg 56%

    23 March, Saturday

    Time Temperature Precipitation Wind Pressure Humidity
    00:00 +10°C° 0 mm 2 mps 767 mmHg 55%
    01:00 +10°C° 0 mm 2 mps 767 mmHg 54%
    02:00 +9°C° 0 mm 2 mps 767 mmHg 54%
    03:00 +9°C° 0 mm 2 mps 767 mmHg 53%
    04:00 +8°C° 0 mm 2 mps 767 mmHg 53%
    05:00 +9°C° 0 mm 2 mps 767 mmHg 53%
    06:00 +9°C° 0 mm 2 mps 767 mmHg 52%
    07:00 +9°C° 0 mm 2 mps 767 mmHg 52%
    08:00 +12°C° 0 mm 2 mps 767 mmHg 46%
    09:00 +15°C° 0 mm 1 mps 767 mmHg 41%
    10:00 +19°C° 0 mm 1 mps 767 mmHg 35%
    11:00 +21°C° 0 mm 1 mps 767 mmHg 33%
    12:00 +22°C° 0 mm 1 mps 766 mmHg 31%
    13:00 +24°C° 0 mm 1 mps 766 mmHg 28%
    14:00 +23°C° 0 mm 1 mps 766 mmHg 30%
    15:00 +23°C° 0 mm 1 mps 765 mmHg 31%
    16:00 +23°C° 0 mm 1 mps 765 mmHg 32%
    17:00 +21°C° 0 mm 1 mps 765 mmHg 39%
    18:00 +18°C° 0 mm 1 mps 765 mmHg 45%
    19:00 +15°C° 0 mm 1 mps 765 mmHg 52%
    20:00 +15°C° 0 mm 1 mps 765 mmHg 53%
    21:00 +14°C° 0 mm 1 mps 765 mmHg 55%
    22:00 +13°C° 0 mm 1 mps 766 mmHg 57%
    23:00 +13°C° 0 mm 1 mps 765 mmHg 57%

    24 March, Sunday

    Time Temperature Precipitation Wind Pressure Humidity
    00:00 +13°C° 0 mm 1 mps 765 mmHg 57%
    01:00 +12°C° 0 mm 1 mps 765 mmHg 58%
    02:00 +12°C° 0 mm 1 mps 765 mmHg 57%
    03:00 +12°C° 0 mm 1 mps 765 mmHg 57%
    04:00 +11°C° 0 mm 1 mps 764 mmHg 57%
    05:00 +11°C° 0 mm 1 mps 764 mmHg 58%
    06:00 +11°C° 0 mm 1 mps 764 mmHg 58%
    07:00 +11°C° 0 mm 1 mps 764 mmHg 58%
    08:00 +14°C° 0 mm 1 mps 765 mmHg 52%
    09:00 +18°C° 0 mm 1 mps 765 mmHg 46%
    10:00 +20°C° 0 mm 1 mps 765 mmHg 40%
    11:00 +21°C° 0 mm 1 mps 765 mmHg 39%
    12:00 +22°C° 0 mm 1 mps 764 mmHg 38%
    13:00 +23°C° 0 mm 2 mps 764 mmHg 36%
    14:00 +21°C° 0 mm 2 mps 763 mmHg 38%
    15:00 +21°C° 0 mm 2 mps 763 mmHg 40%
    16:00 +21°C° 0 mm 2 mps 763 mmHg 42%
    17:00 +19°C° 0 mm 2 mps 762 mmHg 49%
    18:00 +17°C° 0 mm 2 mps 762 mmHg 56%
    19:00 +15°C° 0 mm 1 mps 762 mmHg 62%
    20:00 +14°C° 0 mm 1 mps 763 mmHg 65%
    21:00 +13°C° 0 mm 1 mps 763 mmHg 67%
    22:00 +11°C° 0 mm 0 mps 763 mmHg 69%
    23:00 +11°C° 0 mm 0 mps 763 mmHg 70%

    25 March, Monday

    Time Temperature Precipitation Wind Pressure Humidity
    00:00 +11°C° 0 mm 0 mps 763 mmHg 70%
    01:00 +11°C° 0 mm 0 mps 763 mmHg 71%
    02:00 +10°C° 0 mm 0 mps 763 mmHg 71%
    03:00 +10°C° 0 mm 0 mps 762 mmHg 72%
    04:00 +10°C° 0 mm 0 mps 762 mmHg 72%
    05:00 +10°C° 0 mm 0 mps 762 mmHg 71%
    06:00 +10°C° 0 mm 0 mps 762 mmHg 70%
    07:00 +10°C° 0 mm 0 mps 762 mmHg 70%
    08:00 +14°C° 0 mm 1 mps 762 mmHg 62%
    09:00 +16°C° 0 mm 1 mps 762 mmHg 54%
    10:00 +20°C° 0 mm 1 mps 762 mmHg 46%
    11:00 +21°C° 0 mm 1 mps 762 mmHg 44%
    12:00 +22°C° 0 mm 1 mps 761 mmHg 41%
    13:00 +23°C° 0 mm 2 mps 761 mmHg 39%
    14:00 +21°C° 0 mm 2 mps 760 mmHg 41%
    15:00 +21°C° 0 mm 3 mps 760 mmHg 44%
    16:00 +20°C° 0 mm 3 mps 759 mmHg 46%
    17:00 +18°C° 0 mm 2 mps 759 mmHg 54%
    18:00 +16°C° 0 mm 2 mps 758 mmHg 62%
    19:00 +14°C° 0 mm 1 mps 758 mmHg 70%
    20:00 +13°C° 0 mm 1 mps 758 mmHg 73%
    21:00 +12°C° 0 mm 1 mps 758 mmHg 77%
    22:00 +12°C° 0 mm 1 mps 758 mmHg 80%
    23:00 +11°C° 0 mm 1 mps 758 mmHg 82%
    Show more